Regional Weather Roundup
Issued by NWS

Home | Current Version | Previous Version | Graphics & Text | Print | Product List | Glossary Off
Versions: 1 2 3 4 5 6 7 8 9 10 11 12 13 14 15 16 17 18 19 20 21 22 23 24 25 26 27 28 29 30 31 32 33 34 35 36 37 38 39 40 41 42 43 44 45 46 47 48 49 50

285
ASUS43 KDTX 280210
RWRMI
MICHIGAN HOURLY REGIONAL WEATHER ROUNDUP
NATIONAL WEATHER SERVICE DETROIT/PONTIAC MI
1000 PM EDT THU APR 27 2017

NOTE: "FAIR" INDICATES FEW OR NO CLOUDS BELOW 12,000 FEET WITH NO
SIGNIFICANT WEATHER AND/OR OBSTRUCTION TO VISIBILITY.

MIZ047>049-052>055-059>063-066>070-074>076-081>083-280300-
SOUTHEAST LOWER MICHIGAN

CITY           SKY/WX    TMP DP  RH WIND       PRES   REMARKS
ADRIAN         CLOUDY    50  41  71 W9G18     29.80R
ALMA           CLOUDY    46  39  77 SW10G21   29.74R
ANN ARBOR      CLOUDY    50  39  66 SW17      29.77R
BAD AXE        CLOUDY    48  38  66 W21G29    29.70R
CARO           CLOUDY    49  38  67 SW10G24   29.71R
DETROIT CITY   CLOUDY    53  40  61 W17G26    29.76R
DETROIT        CLOUDY    53  40  61 SW21G29   29.77R
FLINT          CLOUDY    49  39  68 SW12G22   29.74R
GROSSE ILE     CLOUDY    53  40  61 W17G28    29.76R
HILLSDALE      CLOUDY    46  37  71 SW10G18   29.78R
HOWELL         CLOUDY    48  37  64 SW16G22   29.75R

CITY           SKY/WX    TMP DP  RH WIND       PRES   REMARKS
JACKSON        CLOUDY    49  38  65 SW17      29.77R
LAMBERTVILLE   CLOUDY    52  42  70 W10G18    29.79R
LANSING        CLOUDY    48  37  65 SW17G26   29.76R
LAPEER         CLOUDY    50  40  68 W13G24    29.73R
MASON          CLOUDY    48  39  70 SW12G17   29.76R
MONROE         CLOUDY    53  41  63 W17G28    29.78R
MT. CLEMENS    CLOUDY    55  41  60 SW16G22   29.73R
PONTIAC        CLOUDY    50  39  66 W17G24    29.74R
PORT HOPE        N/A     50  39  66 W10G22    29.67R
PORT HURON     CLOUDY    54  39  58 W9        29.73R
TRI CITIES     CLOUDY    48  39  71 SW20G29   29.72R
MIDLAND        CLOUDY    47  37  68 W17G24    29.71R
TROY           CLOUDY    54  39  56 W15G22    29.77R
SAGINAW HB     CLOUDY    48  36  61 W14G20    29.72R
$$
MIZ043>046-050>051-056>058-064>065-071>073-077>080-280300-
SOUTHWEST LOWER MICHIGAN

CITY           SKY/WX    TMP DP  RH WIND       PRES   REMARKS
BATTLE CREEK   CLOUDY    48  39  71 SW16      29.77R
BENTON HARBOR  CLOUDY    47  38  71 SW15      29.81R
BIG RAPIDS     CLOUDY    41  38  89 SW13      29.71R
COLDWATER      CLOUDY    48  39  70 SW14      29.79R
FREMONT        CLOUDY    41  39  92 SW15G21   29.73R
HOLLAND        CLOUDY    45  38  76 W15       29.78R
GRAND RAPIDS   CLOUDY    44  40  85 W13       29.76R
IONIA          CLOUDY    46  38  74 SW17G25   29.75R
KALAMAZOO      CLOUDY    49  38  65 SW9       29.78R
LUDINGTON      CLOUDY    41  40  95 S12G18    29.70R
MARSHALL       CLOUDY    48  38  67 SW10G18   29.77R
MOUNT PLEASANT CLOUDY    45  37  75 SW13G24   29.72R
MUSKEGON       CLOUDY    43  39  86 SW15      29.75R
SOUTH HAVEN    CLOUDY    45  39  78 W9        29.80R
$$
MIZ016>042-280300-
NORTHERN LOWER MICHIGAN

CITY           SKY/WX    TMP DP  RH WIND       PRES   REMARKS
ALPENA         CLOUDY    48  35  60 SW16G25   29.64R
BEAVER ISLAND  LGT RAIN  36  35  96 W16G22    29.64R WCI  26
BELLAIRE       CLOUDY    41  32  70 SW3       29.68R
CADILLAC       CLOUDY    40  33  78 SW12G22   29.67R WCI  32
CHARLEVOIX     CLOUDY    40  33  77 SW20G28   29.68R WCI  30
FRANKFORT      CLOUDY    41  34  74 SW10G20   29.68R
GAYLORD        CLOUDY    41  29  62 W17G28    29.63R
GRAYLING       CLOUDY    40  32  71 SW14      29.67R WCI  32
HARBOR SPRINGS CLOUDY    39  34  82 SW14G21   29.65R WCI  31
HOUGHTON LAKE  CLOUDY    43  33  68 SW17G26   29.68R
MANISTEE       CLOUDY    42  35  76 S6        29.70R
OSCODA         CLOUDY    48  34  56 W16G25    29.65R
PELLSTON       CLOUDY    39  31  72 W9G24     29.64R WCI  33
ROGERS CITY    CLOUDY    45  35  68 W18G25    29.64R
TRAVERSE CITY  CLOUDY    43  33  68 SW7       29.66R
$$
MIZ007>008-015-280300-
EASTERN UPPER MICHIGAN

CITY           SKY/WX    TMP DP  RH WIND       PRES   REMARKS
KINROSS        CLOUDY    38  35  89 SW8G17    29.61R WCI  32
MACKINAC ISLAN CLOUDY    37  37 100 W14G25    29.63R WCI  29
NEWBERRY       CLOUDY    34  33  96 SW9       29.60R WCI  27
S. S. MARIE    CLOUDY    41  37  86 SW12      29.58R
MUNISING         N/A     33  31  92 S3        29.61R
$$
MIZ004>006-011>014-085-280300-
CENTRAL UPPER MICHIGAN

CITY           SKY/WX    TMP DP  RH WIND       PRES   REMARKS
MANISTIQUE     CLOUDY    33  33  98 W5        29.62R WCI  29
ESCANABA       CLOUDY    35  33  92 SW6       29.64R WCI  30
MENOMINEE      LGT RAIN  37  33  85 W3        29.66R
SAWYER-GWINN   LGT SNOW  30  28  93 SW7       29.58R WCI  23
$$
MIZ001>003-009>011-084-280300-
WESTERN UPPER MICHIGAN

CITY           SKY/WX    TMP DP  RH WIND       PRES   REMARKS
IRON MOUNTAIN  CLOUDY    33  26  75 W9        29.60R WCI  25
HOUGHTON       MIX PCPN  29  22  75 W20       29.54R WCI  16
COPPER HARBOR    N/A     29  25  85 NW9G17    29.54R WCI  20
IRONWOOD       CLOUDY    27  25  93 SW12      29.62R WCI  16
$$

ABBREVIATIONS USED IN REMARKS
   TC - TEMPERATURE IN CELSIUS
  WCI - WIND CHILL INDEX
   HX - HEAT INDEX
  VSB - VISIBILITY





USA.gov is the U.S. government's official web portal to all federal, state and local government web resources and services.